FENGYUN 1C DEB, 32320

Orbit data source: Space-Track

FENGYUN 1C DEB, 32320 is space debris in SSO originally from a launch on Mon, 10 May 1999 UTC launched from the Taiyaun Space Center, China (TSC). Fengyun 1C debris stems from the Chinese weather satellite Fengyun-1C, which was intentionally destroyed by a Chinese anti-satellite missile in 2007. This event dramatically increased the amount of space debris, with thousands of trackable fragments posing hazards to satellites and human spaceflight. The Fengyun 1C debris cloud has become a focal point in discussions about space sustainability and the need for international regulations to prevent the creation of new debris.

Loading next visibility...
Identifier
32320, 1999-025CXM
Orbit
SSO
Country
Flag of CNCN / PRC
Related business
Manufacturer
Unknown
Mission
Spacecraft
Bus & Motor
Unknown
Mass
Unknown
Launch date (UTC)
1999-05-10 (27 years ago)
Launch vehicle
Unknown
Launch site
Taiyaun Space Center, China (TSC)
Object type
Payload
Rocket body
Debris
Shape & HBR
Unknown shape, 0.1 m
Radar Cross Section
Small (<0.1 m²)

Expand to show TLE details & history
Last TLE update: 1 week ago

TLE from 1 week ago
0 FENGYUN 1C DEB
1 32320U 99025CXM 26152.16617120  .00002482  00000-0  84206-3 0  9994
2 32320 100.3597  48.7213 0054442 291.6677  67.8711 14.37052033646205
Epoch: 2026-06-01T03:59Z
TLE epoch observation values (Epoch: 2026-06-01T03:59:17.191Z)
Latitude
-0.00002°
Longitude
99.24228°
Altitude
756.659 km
Speed
7.484 km/s
True Right ascension
03h 14m 53s
True Declination
0° 00' 00"
Sunlit
Object was in daylight at epoch
Visualization orbit readout
Latitude
Unknown
Longitude
Unknown
Altitude
Unknown
Speed
Unknown
Apparent Right ascension
Unknown
Apparent Declination
Unknown
Sunlit
N/A
Visualization observer readout
Local Sidereal Time
21:55:29
Azimuth
Unknown
Elevation
Unknown
Doppler factor
Unknown
Orbital elements
Apogee altitude
804.369 km
Perigee altitude
726.587 km
Semi-major axis
7,143.615 km
Eccentricity
0.00544
Inclination
100.3597°
RAAN
48.7213°
Arg. of periapsis
291.6677°
True anomaly
68.45048°
Mean anomaly
67.8711°
Eccentric anomaly
68.16064°
Mean motion
3.59473 °/min
Orbital period
100.15 mins
BSTAR
0.00084206
Loading maneuver chart data...
Computing Atmospheric mass density...

Documentation

Showing up to 5 results
|